TIANMU-1 13

Last updated on Sat Aug 15 2026 00:02:41 GMT+0000 (Coordinated Universal Time)

1 58647U 23205C 26226.63735686 .00002974 00000+0 11435-3 0 9992 2 58647 97.3458 247.3193 0008046 116.0344 244.1725 15.27168185146420
UTC large
Height (km)
Speed (km/s)
/
Latitude / Longitude
Inclination (degrees)
Orbital Period (minutes)
Azimuth
Elevation
Range (km)
Doppler Factor

Next 0 passes for location: London (51.5072 / 0.1276)

No passes found over London.
TIANMU-1 13